Location: Copeville
(33.0796°N, 96.4155°W)
Time: 00:00:17
(UTC+00:00)

SEEDS - Pass Details

Date: 02 April 2023
Orbit: 568 x 587 km, 97.7° (Epoch: 27 May)

Event Time Altitude Azimuth Distance (km) Brightness Sun altitude
Rises 23:24:16 0° 245° (WSW) 2,780 ? 16.2°
Enters shadow 23:58:17 -54° 21° (NNE) 11,049 ? 9.1°
Exits shadow 00:25:02 -66° 154° (SSE) 12,283 ? 3.5°
Reaches altitude 10° 09:33:02 10° 45° (NE) 1,921 ? -32.3°
Maximum altitude 09:36:15 22° 96° (E) 1,321 ? -31.7°
